When you browse on this site, cookies collect data to enhance your experience and personalize the content and advertising you see.
Visit our Privacy Policy to learn more. By continuing to use the site, you agree to this use of cookies and data.

Hourly Weather Renens

Today, 14 August, Friday

Time Temperature Precipitation Wind Pressure Humidity
00:00 +20°C° 1.6 mm 1 mps 725 mmHg 95%
01:00 +19°C° 0.1 mm 1 mps 725 mmHg 95%
02:00 +19°C° 0.1 mm 1 mps 724 mmHg 94%
03:00 +18°C° 0.1 mm 1 mps 724 mmHg 94%
04:00 +19°C° 0 mm 1 mps 724 mmHg 93%
05:00 +17°C° 0 mm 0 mps 725 mmHg 92%
06:00 +18°C° 0 mm 0 mps 725 mmHg 91%
07:00 +19°C° 0 mm 0 mps 725 mmHg 87%
08:00 +22°C° 0 mm 1 mps 725 mmHg 82%
09:00 +24°C° 0 mm 1 mps 725 mmHg 78%
10:00 +25°C° 0.3 mm 1 mps 724 mmHg 75%
11:00 +25°C° 0.3 mm 1 mps 724 mmHg 72%
12:00 +26°C° 0.3 mm 1 mps 724 mmHg 70%
13:00 +26°C° 0.9 mm 1 mps 724 mmHg 73%
14:00 +26°C° 0.9 mm 1 mps 723 mmHg 76%
15:00 +25°C° 0.9 mm 1 mps 723 mmHg 79%
16:00 +24°C° 0.5 mm 1 mps 723 mmHg 82%
17:00 +23°C° 0.5 mm 1 mps 723 mmHg 86%
18:00 +21°C° 0.5 mm 0 mps 724 mmHg 89%
19:00 +21°C° 0.1 mm 1 mps 724 mmHg 90%
20:00 +20°C° 0.1 mm 1 mps 724 mmHg 91%
21:00 +19°C° 0.1 mm 1 mps 724 mmHg 92%
22:00 +19°C° 0 mm 1 mps 724 mmHg 92%
23:00 +19°C° 0 mm 1 mps 724 mmHg 92%

Tomorrow, 15 August, Saturday

Time Temperature Precipitation Wind Pressure Humidity
00:00 +18°C° 0 mm 1 mps 724 mmHg 91%
01:00 +18°C° 0 mm 1 mps 724 mmHg 92%
02:00 +18°C° 0 mm 1 mps 724 mmHg 92%
03:00 +16°C° 0 mm 0 mps 723 mmHg 92%
04:00 +16°C° 0 mm 0 mps 724 mmHg 91%
05:00 +17°C° 0 mm 0 mps 724 mmHg 90%
06:00 +18°C° 0 mm 0 mps 724 mmHg 89%
07:00 +22°C° 0 mm 1 mps 724 mmHg 82%
08:00 +24°C° 0 mm 1 mps 724 mmHg 75%
09:00 +26°C° 0 mm 1 mps 724 mmHg 68%
10:00 +27°C° 0 mm 1 mps 723 mmHg 64%
11:00 +27°C° 0 mm 1 mps 723 mmHg 60%
12:00 +28°C° 0 mm 1 mps 723 mmHg 55%
13:00 +28°C° 0 mm 1 mps 723 mmHg 55%
14:00 +28°C° 0 mm 1 mps 723 mmHg 55%
15:00 +28°C° 0 mm 1 mps 722 mmHg 55%
16:00 +27°C° 0 mm 1 mps 722 mmHg 62%
17:00 +23°C° 0 mm 0 mps 722 mmHg 69%
18:00 +22°C° 0 mm 0 mps 722 mmHg 76%
19:00 +21°C° 0 mm 0 mps 722 mmHg 79%
20:00 +22°C° 0 mm 1 mps 722 mmHg 82%
21:00 +20°C° 0 mm 1 mps 722 mmHg 85%
22:00 +20°C° 0 mm 1 mps 722 mmHg 86%
23:00 +20°C° 0 mm 1 mps 722 mmHg 87%

Day after tomorrow, 16 August, Sunday

Time Temperature Precipitation Wind Pressure Humidity
00:00 +20°C° 0 mm 1 mps 722 mmHg 89%
01:00 +19°C° 0 mm 1 mps 722 mmHg 88%
02:00 +19°C° 0 mm 1 mps 721 mmHg 87%
03:00 +19°C° 0 mm 1 mps 721 mmHg 86%
04:00 +20°C° 0 mm 1 mps 721 mmHg 84%
05:00 +20°C° 0 mm 1 mps 721 mmHg 82%
06:00 +21°C° 0 mm 1 mps 722 mmHg 80%
07:00 +23°C° 0 mm 1 mps 722 mmHg 72%
08:00 +25°C° 0 mm 1 mps 722 mmHg 65%
09:00 +27°C° 0 mm 1 mps 722 mmHg 58%
10:00 +28°C° 0 mm 1 mps 722 mmHg 55%
11:00 +29°C° 0 mm 1 mps 721 mmHg 51%
12:00 +30°C° 0 mm 1 mps 721 mmHg 48%
13:00 +30°C° 0 mm 1 mps 721 mmHg 49%
14:00 +30°C° 0 mm 1 mps 721 mmHg 51%
15:00 +29°C° 0 mm 1 mps 721 mmHg 52%
16:00 +28°C° 0.2 mm 1 mps 721 mmHg 61%
17:00 +24°C° 0.2 mm 0 mps 721 mmHg 69%
18:00 +23°C° 0.2 mm 0 mps 721 mmHg 77%
19:00 +24°C° 0.3 mm 1 mps 721 mmHg 80%
20:00 +21°C° 0.3 mm 2 mps 721 mmHg 82%
21:00 +20°C° 0.3 mm 2 mps 721 mmHg 85%
22:00 +20°C° 0.6 mm 2 mps 721 mmHg 87%
23:00 +21°C° 0.6 mm 1 mps 722 mmHg 90%

17 August, Monday

Time Temperature Precipitation Wind Pressure Humidity
00:00 +20°C° 0.6 mm 1 mps 722 mmHg 92%
01:00 +20°C° 0.2 mm 1 mps 722 mmHg 92%
02:00 +20°C° 0.2 mm 1 mps 722 mmHg 92%
03:00 +20°C° 0.2 mm 1 mps 722 mmHg 91%
04:00 +20°C° 0.5 mm 1 mps 722 mmHg 92%
05:00 +20°C° 0.5 mm 1 mps 722 mmHg 93%
06:00 +20°C° 0.5 mm 1 mps 722 mmHg 94%
07:00 +21°C° 0.4 mm 1 mps 722 mmHg 91%
08:00 +22°C° 0.4 mm 1 mps 722 mmHg 88%
09:00 +23°C° 0.4 mm 1 mps 722 mmHg 84%
10:00 +24°C° 1.1 mm 2 mps 722 mmHg 84%
11:00 +24°C° 1.1 mm 2 mps 722 mmHg 83%
12:00 +24°C° 1.1 mm 2 mps 722 mmHg 82%
13:00 +24°C° 1.6 mm 2 mps 722 mmHg 80%
14:00 +24°C° 1.6 mm 2 mps 722 mmHg 78%
15:00 +24°C° 1.6 mm 2 mps 722 mmHg 76%
16:00 +23°C° 0.8 mm 2 mps 722 mmHg 80%
17:00 +22°C° 0.8 mm 1 mps 722 mmHg 84%
18:00 +21°C° 0.8 mm 1 mps 723 mmHg 88%
19:00 +20°C° 0.4 mm 1 mps 723 mmHg 88%
20:00 +19°C° 0.4 mm 1 mps 723 mmHg 88%
21:00 +18°C° 0.4 mm 1 mps 724 mmHg 89%
22:00 +18°C° 0.1 mm 1 mps 724 mmHg 89%
23:00 +16°C° 0.1 mm 1 mps 724 mmHg 89%

18 August, Tuesday

Time Temperature Precipitation Wind Pressure Humidity
00:00 +16°C° 0.1 mm 1 mps 724 mmHg 89%
01:00 +16°C° 0 mm 1 mps 724 mmHg 90%
02:00 +15°C° 0 mm 1 mps 724 mmHg 90%
03:00 +15°C° 0 mm 1 mps 724 mmHg 90%
04:00 +16°C° 0 mm 1 mps 724 mmHg 90%
05:00 +15°C° 0 mm 0 mps 724 mmHg 90%
06:00 +16°C° 0 mm 0 mps 724 mmHg 89%
07:00 +18°C° 0 mm 0 mps 724 mmHg 81%
08:00 +22°C° 0 mm 1 mps 724 mmHg 73%
09:00 +24°C° 0 mm 1 mps 724 mmHg 65%
10:00 +25°C° 0 mm 1 mps 724 mmHg 61%
11:00 +25°C° 0 mm 1 mps 724 mmHg 57%
12:00 +26°C° 0 mm 1 mps 724 mmHg 52%
13:00 +26°C° 0.1 mm 1 mps 724 mmHg 52%
14:00 +26°C° 0.1 mm 1 mps 724 mmHg 52%
15:00 +26°C° 0.1 mm 1 mps 724 mmHg 53%
16:00 +24°C° 0 mm 1 mps 724 mmHg 61%
17:00 +23°C° 0 mm 1 mps 724 mmHg 69%
18:00 +21°C° 0 mm 1 mps 724 mmHg 77%
19:00 +20°C° 0 mm 1 mps 724 mmHg 79%
20:00 +19°C° 0 mm 1 mps 724 mmHg 82%
21:00 +18°C° 0 mm 1 mps 725 mmHg 85%
22:00 +18°C° 0 mm 1 mps 725 mmHg 85%
23:00 +16°C° 0 mm 1 mps 725 mmHg 85%

19 August, Wednesday

Time Temperature Precipitation Wind Pressure Humidity
00:00 +16°C° 0 mm 1 mps 724 mmHg 84%
01:00 +16°C° 0 mm 1 mps 724 mmHg 85%
02:00 +16°C° 0 mm 1 mps 724 mmHg 85%
03:00 +15°C° 0 mm 1 mps 724 mmHg 85%
04:00 +16°C° 0 mm 1 mps 724 mmHg 84%
05:00 +18°C° 0 mm 1 mps 724 mmHg 83%
06:00 +18°C° 0 mm 1 mps 724 mmHg 82%
07:00 +20°C° 0 mm 1 mps 724 mmHg 75%
08:00 +22°C° 0 mm 1 mps 724 mmHg 67%
09:00 +24°C° 0 mm 1 mps 724 mmHg 60%
10:00 +25°C° 0 mm 1 mps 724 mmHg 57%
11:00 +26°C° 0 mm 2 mps 724 mmHg 55%
12:00 +27°C° 0 mm 2 mps 723 mmHg 52%
13:00 +27°C° 0 mm 1 mps 723 mmHg 52%
14:00 +27°C° 0 mm 1 mps 723 mmHg 53%
15:00 +27°C° 0 mm 1 mps 723 mmHg 53%
16:00 +25°C° 0 mm 1 mps 722 mmHg 61%
17:00 +24°C° 0 mm 1 mps 722 mmHg 68%
18:00 +20°C° 0 mm 0 mps 722 mmHg 76%
19:00 +19°C° 0 mm 0 mps 722 mmHg 78%
20:00 +20°C° 0 mm 1 mps 723 mmHg 80%
21:00 +19°C° 0 mm 1 mps 723 mmHg 83%
22:00 +19°C° 0 mm 1 mps 722 mmHg 83%
23:00 +18°C° 0 mm 1 mps 722 mmHg 83%
Show more